x

8454049 - Quonset Point, Ri (qptr1) Weather Station

3:54 - Tue 30th Jun 2015 All times are EDT. -4 hours from GMT.

  • Wind
    8mph, 9mph gusts
  • Sea Temp 68°f
  • Air Temp 64°f
  • Sea Pressure 1014.5mb
  • 8454049 - Quonset Point, Ri
  • 8454049 - Quonset Point, Ri

More Historic Weather Station data

Upgrade to MSW Pro to gain access to the past 30 days of data for over 8000 Wavebouys and Weather Stations around the globe.

Join Pro

Comparision Forecast

View Surf forecast
   
mar. 06/30 3:54 8 9 mph 1014.5mb 68f 64f
3:48 7 8 mph 1014.4mb 68f 64f
3:42 6 8 mph 1014.5mb 68f 64f
3:36 7 8 mph 1014.5mb 68f 64f
3:30 7 8 mph 1014.4mb 68f 64f
3:24 7 8 mph 1014.4mb 68f 63f
3:18 6 8 mph 1014.4mb 68f 64f
3:12 7 9 mph 1014.4mb 68f 64f
3:06 6 7 mph 1014.3mb 68f 64f
3:00 7 8 mph 1014.2mb 68f 64f
2:54 6 7 mph 1014.2mb 68f 64f
2:48 6 7 mph - 68f -
2:42 5 6 mph - 68f -
2:36 3 7 mph - 68f -
2:30 6 9 mph 1014.1mb 68f 64f
2:24 6 7 mph 1014.1mb 68f 64f
2:18 6 8 mph 1014mb 68f 64f
2:12 8 9 mph 1014mb 68f 64f
2:06 8 9 mph 1014.1mb 68f 64f
2:00 9 10 mph 1014.1mb 68f 64f
1:54 8 10 mph 1014.1mb 68f 64f
1:48 9 10 mph 1014mb 68f 64f
1:42 9 11 mph 1014mb 68f 64f
1:36 9 11 mph 1014mb 68f 64f
1:30 9 10 mph 1013.9mb 68f 64f
1:24 9 11 mph 1013.9mb 68f 64f
1:18 9 11 mph 1013.9mb 68f 64f
1:12 9 11 mph 1013.9mb 68f 64f
1:06 9 11 mph 1013.9mb 68f 64f
1:00 10 11 mph 1014mb 68f 64f
12:54 10 11 mph 1014mb 68f 64f
12:48 9 11 mph 1013.9mb 69f 64f
12:42 8 11 mph 1013.9mb 69f 65f
12:36 9 11 mph 1013.9mb 69f 64f
12:30 9 10 mph 1013.9mb 69f 64f
12:24 9 11 mph 1013.9mb 69f 64f
12:18 10 11 mph 1013.9mb 69f 64f
12:12 9 11 mph 1013.9mb 69f 65f
12:06 9 11 mph 1013.9mb 69f 65f
12:00 10 11 mph 1013.8mb 69f 65f
lun. 06/29 11:54 9 10 mph 1013.8mb 69f 65f
11:48 9 10 mph 1013.7mb 69f 65f
11:42 9 10 mph 1013.8mb 69f 65f
11:36 9 11 mph 1013.8mb 69f 65f
11:30 9 11 mph 1013.8mb 69f 65f
11:24 10 13 mph 1013.7mb 69f 65f
11:18 11 13 mph 1013.6mb 69f 65f
11:12 11 13 mph 1013.5mb 69f 66f
11:06 11 13 mph 1013.5mb 69f 66f
11:00 11 13 mph 1013.5mb 69f 66f
10:54 10 13 mph 1013.6mb 69f 66f
10:48 10 13 mph 1013.5mb 69f 66f
10:42 9 10 mph 1013.5mb 68f 66f
10:36 7 8 mph 1013.4mb 68f 66f
10:30 8 9 mph 1013.4mb 68f 66f
10:24 8 10 mph 1013.4mb 68f 66f
10:18 7 9 mph 1013.4mb 68f 66f
10:12 8 9 mph 1013.4mb 68f 66f
10:06 8 9 mph 1013.4mb 67f 66f
10:00 7 9 mph 1013.3mb 67f 66f
9:54 8 10 mph 1013.3mb 67f 66f
9:48 10 11 mph 1013.3mb 67f 67f
9:42 10 11 mph 1013.2mb 67f 67f
9:36 10 11 mph 1013.1mb 67f 67f
9:30 10 11 mph 1013mb 67f 67f
9:24 9 13 mph 1012.9mb 67f 67f
9:18 10 13 mph 1012.8mb 67f 67f
9:12 9 11 mph 1012.7mb 67f 67f
9:06 10 11 mph 1012.7mb 67f 67f
9:00 9 11 mph 1012.7mb 67f 67f
8:54 9 11 mph 1012.6mb 67f 68f
8:48 9 13 mph 1012.5mb 67f 68f
8:42 10 13 mph 1012.4mb 67f 68f
8:36 13 14 mph 1012.3mb 67f 68f
8:30 11 15 mph 1012.3mb 67f 69f
8:24 13 16 mph 1012.2mb 67f 69f
8:18 14 16 mph 1012.3mb 67f 69f
8:12 14 16 mph 1012.3mb 67f 69f
8:06 15 18 mph 1012.3mb 67f 69f
8:00 14 16 mph 1012.2mb 67f 69f
7:54 14 16 mph 1012.2mb 67f 70f
7:48 14 17 mph 1012.2mb 67f 70f
7:42 14 17 mph 1012.1mb 67f 70f
7:36 14 18 mph 1012.1mb 67f 70f
7:30 14 16 mph 1012.1mb 67f 70f
7:24 13 16 mph 1012.1mb 67f 70f
7:18 14 16 mph 1012mb 68f 70f
7:12 14 17 mph 1011.9mb 68f 71f
7:06 15 17 mph 1011.9mb 68f 71f
7:00 10 15 mph 1011.9mb 68f 71f
6:54 10 11 mph 1011.8mb 68f 73f
6:48 9 10 mph 1011.8mb 68f 72f
6:42 9 11 mph 1011.6mb 68f 73f
6:36 9 11 mph 1011.6mb 68f 72f
6:30 9 11 mph 1011.6mb 68f 72f
6:24 9 13 mph 1011.5mb 68f 72f
6:18 11 13 mph 1011.6mb 68f 72f
6:12 11 14 mph 1011.4mb 69f 72f
6:06 11 15 mph 1011.4mb 69f 72f
6:00 13 14 mph 1011.3mb 69f 72f
5:54 14 15 mph 1011.2mb 69f 72f
5:48 11 15 mph 1011.2mb 69f 73f
5:42 14 16 mph 1011.2mb 70f 72f
5:36 10 15 mph 1011.1mb 70f 72f
5:30 14 18 mph 1011mb 70f 72f
5:24 14 18 mph 1011mb 70f 72f
5:18 16 18 mph 1011mb 70f 72f
5:12 11 14 mph 1011mb 70f 72f
5:06 14 16 mph 1011mb 70f 72f
5:00 13 16 mph 1010.9mb 70f 72f
4:54 13 16 mph 1010.9mb 70f 72f
4:48 11 13 mph 1010.8mb 70f 72f
4:42 11 14 mph 1010.8mb 70f 72f
4:36 10 13 mph 1010.7mb 70f 72f
4:30 10 14 mph 1010.6mb 69f 72f
4:24 10 15 mph 1010.6mb 69f 72f
4:18 11 14 mph 1010.6mb 69f 72f
4:12 9 10 mph 1010.6mb 69f 72f
4:06 8 9 mph 1010.7mb 69f 72f
4:00 8 13 mph 1010.7mb 69f 71f
3:54 11 16 mph 1010.7mb 69f 71f
3:48 16 18 mph 1010.7mb 69f 71f
3:42 8 14 mph 1010.8mb 69f 71f
3:36 11 15 mph 1010.8mb 69f 71f
3:30 14 16 mph 1010.8mb 69f 71f
3:24 13 14 mph 1010.8mb 69f 71f
3:18 9 11 mph 1010.8mb 69f 71f
3:12 8 10 mph 1010.8mb 69f 71f
3:06 9 11 mph 1010.7mb 69f 70f
3:00 11 13 mph 1010.7mb 69f 70f
2:54 11 13 mph 1010.7mb 69f 70f
2:48 9 14 mph 1010.6mb 69f 70f
2:42 13 16 mph 1010.6mb 69f 70f
2:36 14 15 mph 1010.5mb 69f 70f
2:30 10 15 mph 1010.5mb 69f 70f
2:24 13 16 mph 1010.5mb 69f 70f
2:18 13 15 mph 1010.6mb 69f 70f
2:12 14 16 mph 1010.6mb 69f 70f
2:06 8 13 mph 1010.6mb 69f 70f
2:00 8 13 mph 1010.5mb 69f 70f
1:54 8 11 mph 1010.5mb 69f 71f
1:48 5 11 mph 1010.5mb 69f 71f
1:42 7 10 mph 1010.5mb 69f 71f
1:36 8 9 mph 1010.5mb 69f 70f
1:30 7 11 mph 1010.5mb 69f 70f
1:24 10 13 mph 1010.5mb 69f 70f
1:18 8 10 mph 1010.5mb 69f 70f
1:12 10 13 mph 1010.4mb 69f 70f
1:06 10 15 mph 1010.5mb 69f 70f
1:00 11 14 mph 1010.5mb 69f 70f
12:54 10 13 mph 1010.6mb 69f 70f
12:48 7 11 mph 1010.6mb 69f 69f
12:42 8 10 mph 1010.5mb 69f 68f
12:36 8 9 mph 1010.5mb 69f 68f
12:30 6 8 mph 1010.4mb 69f 68f
12:24 7 9 mph 1010.4mb 69f 68f
12:18 8 10 mph 1010.5mb 69f 68f
12:12 8 10 mph 1010.6mb 69f 67f
12:06 9
mph
1010.6mb 69f 67f
12:00 7 11 mph 1010.6mb 69f 67f
11:54 9 13 mph 1010.6mb 69f 66f
11:48 10 11 mph 1010.6mb 69f 66f
11:42 9 13 mph 1010.5mb 69f 66f
11:36 13 14 mph 1010.5mb 69f 66f
11:30 11 14 mph 1010.5mb 69f 66f
11:24 10 11 mph 1010.4mb 69f 66f
11:18 7 11 mph 1010.4mb 69f 67f
11:12 8 10 mph 1010.4mb 69f 66f
11:06 8 10 mph 1010.3mb 69f 66f
11:00 10
mph
1010.1mb 69f 65f
10:54 8 10 mph 1010.1mb 69f 66f
10:48 9 11 mph 1010.1mb 69f 66f
10:42 7 9 mph 1010.1mb 69f 65f
10:36 7 8 mph 1010mb 69f 65f
10:30 6 7 mph 1009.9mb 68f 65f
10:24 5 6 mph 1009.9mb 68f 66f
10:18 3 5 mph 1010mb 68f 65f
10:12 3 6 mph 1010mb 68f 65f
10:06 3 5 mph 1010mb 68f 64f
10:00 3 5 mph 1010mb 68f 64f
9:54 3 5 mph 1010mb 68f 63f
9:48 3 5 mph 1010mb 68f 63f
9:42 3 5 mph 1010mb 68f 63f
9:36 3 5 mph 1010.1mb 68f 63f
9:30 3 5 mph 1010.1mb 68f 62f
9:24 3
mph
1010.1mb 67f 62f
9:18 3 5 mph 1010.1mb 67f 62f
9:12 3 5 mph 1010.1mb 67f 62f
9:06 2 3 mph 1010.1mb 67f 61f
9:00 1 3 mph 1010.2mb 67f 62f
8:54 2
mph
1010mb 67f 62f
8:48 2
mph
1010mb 67f 62f
8:42 2
mph
1009.9mb 67f 61f
8:36 1 2 mph 1009.7mb 67f 62f
8:30  -  2 mph 1009.8mb 67f 62f
8:24  -  1 mph 1009.7mb 67f 62f
8:18  -  1 mph 1009.7mb 68f 62f
8:12  -  1 mph 1009.7mb 68f 62f
8:06  -  2 mph 1009.6mb 68f 61f
8:00 1 2 mph 1009.5mb 68f 60f
7:54 2 3 mph 1009.6mb 68f 60f
7:48 1 2 mph 1009.4mb 68f 60f
7:42  -  2 mph 1009.4mb 68f 60f
7:36 3 5 mph 1009.5mb 68f 60f
7:30 2 3 mph 1009.5mb 68f 60f
7:24 2 3 mph 1009.5mb 68f 59f
7:18 1 2 mph 1009.5mb 68f 59f
7:12 1 3 mph 1009.5mb 68f 59f
7:06 3
mph
1009.5mb 68f 58f
7:00 3 6 mph 1009.5mb 68f 58f
6:54 2 5 mph 1009.5mb 68f 58f
6:48 3 6 mph 1009.5mb 68f 58f
6:42 6
mph
1009.4mb 68f 58f
6:36 5 6 mph 1009.4mb 68f 58f
6:30 5 6 mph 1009.4mb 68f 58f
6:24 5 6 mph 1009.4mb 68f 58f
6:18 5 6 mph 1009.3mb 68f 58f
6:12 6 7 mph 1009.3mb 68f 58f
6:06 6 7 mph 1009.3mb 68f 58f
6:00 5 7 mph 1009.3mb 68f 58f
5:54 5 6 mph 1009.2mb 68f 58f
5:48 3 5 mph 1009.2mb 68f 58f
5:42 2 5 mph 1009.1mb 68f 58f
5:36 1 3 mph 1009.1mb 68f 58f
5:30 3 5 mph 1009.1mb 68f 57f
5:24 1 3 mph 1009.1mb 68f 57f
5:18  -  3 mph 1009.1mb 68f 57f
5:12 1 5 mph 1009mb 68f 57f
5:06 3 5 mph 1009mb 68f 57f
5:00 2 5 mph 1008.9mb 68f 57f
4:54 5
mph
1008.9mb 68f 57f
4:48 2 5 mph 1008.8mb 68f 57f
4:42 2 5 mph 1008.6mb 68f 57f
4:36 3
mph
1008.5mb 68f 57f
4:30 2 5 mph 1008.4mb 68f 57f
4:24 5 6 mph 1008.3mb 68f 57f
4:18 3 5 mph 1008.3mb 68f 57f
4:12 2 5 mph 1008.2mb 68f 57f
4:06 3
mph
1008.2mb 68f 57f
4:00 2 3 mph 1008.2mb 68f 57f
3:54 2 5 mph 1008.2mb 68f 56f
3:48 2 6 mph 1008.1mb 68f 57f
3:42 2 5 mph 1008.1mb 68f 56f
3:36 3 6 mph 1008.1mb 68f 56f
3:30 5 6 mph 1008mb 68f 56f
3:24 5 7 mph 1008mb 68f 56f
3:18 5 7 mph 1008mb 68f 56f
3:12 6 7 mph 1008mb 68f 56f
3:06 6 8 mph 1008mb 68f 56f
3:00 7 8 mph 1007.9mb 68f 56f
2:54 7 9 mph 1007.9mb 68f 56f
2:48 7 8 mph - - 56f
2:42 6 8 mph - - 56f
2:36 6 9 mph - - 56f
2:30 7 8 mph - 68f 56f
2:24 7 8 mph - 68f 56f
2:18 7 9 mph - - -
2:12 7 9 mph - - -
2:06 7 8 mph - - -
2:00 5 7 mph 1007.8mb 68f 56f
1:54 6 7 mph 1007.7mb 68f 56f
1:48 5 7 mph 1007.8mb 68f 56f
1:42 6 8 mph 1007.8mb 68f 56f
1:36 6 7 mph 1008mb 68f 56f
1:30 5 7 mph 1007.8mb 68f 56f
1:24 5 7 mph 1007.8mb 68f 56f
1:18 6 7 mph 1007.9mb 68f 56f
1:12 6 7 mph 1007.8mb 68f 56f
1:06 6 8 mph 1007.9mb 68f 56f
1:00 7 8 mph 1007.8mb 68f 56f
12:54 6 8 mph 1007.9mb 68f 56f
12:48 6 8 mph 1007.9mb 68f 56f
12:42 6 8 mph 1007.9mb 68f 56f
12:36 6 7 mph 1007.9mb 68f 56f
12:30 6 8 mph 1007.8mb 68f 56f
12:24 6 8 mph 1007.8mb 68f 56f
12:18 7 8 mph 1007.8mb 68f 56f
12:12 6 8 mph 1007.9mb 68f 56f
12:06 6 8 mph 1007.9mb 68f 56f
12:00 6 9 mph 1008mb 68f 56f
dim. 06/28 11:54 8 10 mph 1008.1mb 68f 56f
11:48 8 10 mph 1008mb 68f 56f
11:42 7 9 mph 1007.9mb 68f 56f
11:36 8 10 mph 1007.9mb 68f 56f
11:30 8 10 mph 1008mb 68f 56f
11:24 8 9 mph 1008mb 68f 56f
11:00 8 10 mph 1007.8mb 69f 57f
10:54 9 10 mph 1007.8mb 69f 57f
10:48 9 10 mph 1007.9mb 69f 57f
10:42 9 10 mph 1007.9mb 69f 57f
10:36 7 10 mph 1008mb 69f 57f
10:30 8 13 mph 1008mb 69f 57f
10:24 9 11 mph 1007.9mb 69f 57f
10:18 8 11 mph 1008mb 69f 57f
10:12 8 11 mph 1008mb 69f 57f
10:06 11 14 mph 1008mb 69f 57f
10:00 10 13 mph 1008mb 69f 57f
9:54 10 13 mph 1007.9mb 69f 57f
9:48 10 13 mph 1007.9mb 69f 57f
9:42 11 14 mph 1008mb 69f 58f
9:36 9 13 mph 1007.9mb 69f 58f
9:30 9 10 mph 1007.8mb 69f 58f
9:12 10 14 mph 1007.5mb 68f 58f
9:06 9 11 mph 1007.4mb 68f 58f
8:54 9 11 mph 1007.1mb 68f 58f
8:48 10 14 mph 1007mb 68f 58f
8:42 11 14 mph 1006.9mb 68f 58f
8:36 9 13 mph 1006.9mb 68f 59f
8:30 9 10 mph 1006.8mb 68f 59f
8:24 7 9 mph 1006.8mb 68f 59f
8:18 8 10 mph 1006.8mb 68f 59f
8:12 8 13 mph 1006.7mb 68f 59f
8:06 8 10 mph 1006.7mb 68f 60f
8:00 7 8 mph 1006.6mb 68f 60f
7:54 8 11 mph 1006.5mb 68f 60f
7:48 8 11 mph 1006.4mb 68f 60f
7:42 6 9 mph 1006.3mb 68f 60f
7:36 8 10 mph 1006.2mb 68f 60f
7:30 8 10 mph 1006.1mb 68f 60f
7:24 8 11 mph 1006mb 68f 60f
7:18 8 9 mph 1006mb 69f 60f
7:12 9 11 mph 1005.8mb 69f 60f
7:06 9 13 mph 1005.7mb 69f 60f
7:00 8 10 mph 1005.6mb 69f 61f
6:54 9 13 mph 1005.6mb 69f 61f
6:48 9 14 mph 1005.4mb 69f 61f
6:42 10 14 mph 1005.2mb 69f 61f
6:36 10 13 mph 1005.1mb 69f 61f
6:30 8 13 mph 1005mb 69f 61f
6:24 9 14 mph 1004.9mb 69f 61f
6:18 10 13 mph 1004.9mb 69f 61f
6:12 8 11 mph 1004.7mb 69f 61f
6:06 11 14 mph 1004.5mb 69f 61f
6:00 10 14 mph 1004.5mb 69f 61f
5:54 10 14 mph 1004.3mb 69f 61f
5:48 10 14 mph 1004.2mb 69f 61f
5:42 9 13 mph 1004.3mb 69f 61f
5:36 11 14 mph 1004.2mb 69f 61f
5:30 9 14 mph 1004.2mb 69f 62f
5:24 11 14 mph 1004.2mb 69f 62f
5:18 9
mph
1004.3mb 69f 63f
5:00 14 16 mph 1004.2mb 69f 63f
4:54 14 17 mph 1004.2mb 69f 63f
4:48 14 17 mph 1004.2mb 69f 63f
4:42 14 17 mph 1004.1mb 69f 63f
4:36 14 17 mph 1004.1mb 69f 63f
4:30 13 16 mph 1003.9mb 69f 64f
4:24 14 17 mph 1003.9mb 69f 64f
4:18 14 18 mph 1003.9mb 69f 63f
4:12 15 18 mph 1003.9mb 69f 64f
4:06 13 16 mph 1003.9mb 69f 64f
4:00 14 17 mph 1003.8mb 69f 64f
3:54 14 20 mph 1004mb 69f 64f
3:48 15 18 mph 1003.9mb 69f 63f
3:42 14 17 mph 1003.9mb 69f 64f
3:36 15 18 mph 1003.8mb 69f 64f
3:30 14 17 mph 1003.8mb 69f 64f
3:24 13 15 mph 1003.7mb 69f 64f
3:18 13 15 mph 1003.6mb 69f 64f
3:12 11 16 mph 1003.7mb 69f 64f
3:06 11 16 mph 1003.7mb 69f 64f
3:00 16 20 mph 1003.7mb 69f 64f
2:54 14 17 mph 1003.7mb 69f 64f
2:48 14 18 mph 1003.6mb 69f 64f
2:42 15 18 mph 1003.6mb 69f 64f
2:36 16 20 mph 1003.5mb 69f 64f
2:30 17 21 mph 1003.4mb 69f 64f
2:24 16 20 mph 1003.4mb 69f 64f
2:18 17 20 mph 1003.4mb 69f 64f
2:12 15 18 mph 1003.4mb 69f 64f
2:06 14 20 mph 1003.4mb 69f 64f
2:00 17 20 mph 1003.4mb 69f 64f
1:54 16 22 mph 1003.4mb 69f 64f
1:48 17 21 mph 1003.3mb 69f 64f
1:42 18 23 mph 1003.1mb 69f 64f
1:36 16 21 mph 1003.2mb 69f 64f
1:30 16 21 mph 1003.2mb 69f 64f
1:24 14 18 mph 1003.2mb 69f 65f
1:18 16 20 mph 1003.2mb 69f 65f
1:12 14 17 mph 1003.4mb 69f 65f
1:06 14 20 mph 1003.4mb 69f 65f
1:00 15 18 mph 1003.4mb 69f 65f
12:54 15 20 mph 1003.4mb 69f 65f
12:48 16 20 mph 1003.5mb 69f 65f
12:42 16 21 mph 1003.4mb 69f 65f
12:36 15 18 mph 1003.5mb 69f 65f
12:30 14 20 mph 1003.5mb 68f 65f
12:24 14 18 mph 1003.5mb 69f 65f
12:18 13 16 mph 1003.6mb 69f 65f
12:12 14 17 mph 1003.7mb 68f 65f
12:06 14 18 mph 1003.7mb 68f 65f
12:00 13 17 mph 1003.7mb 68f 65f
11:54 14 17 mph 1003.7mb 68f 65f
11:48 14 18 mph 1003.6mb 68f 65f
11:42 14 18 mph 1003.4mb 68f 65f
11:36 15 20 mph 1003.4mb 68f 65f
11:30 15 20 mph 1003.4mb 68f 65f
11:24 17 18 mph 1003.5mb 68f 65f
11:18 17 20 mph 1003.6mb 68f 65f
11:12 14 17 mph 1003.7mb 68f 65f
11:06 14 18 mph 1003.7mb 68f 65f
11:00 14 17 mph 1003.7mb 68f 65f
10:54 14 17 mph 1003.7mb 68f 65f
10:48 14 17 mph 1003.7mb 68f 65f
10:42 14 16 mph 1003.7mb 68f 65f
10:36 14 17 mph 1003.8mb 68f 65f
10:30 14 17 mph 1003.8mb 68f 65f
10:24 14 16 mph 1003.8mb 68f 65f
10:18 13 16 mph 1003.8mb 68f 65f
10:12 13 17 mph 1003.8mb 68f 65f
10:06 14 18 mph 1003.8mb 68f 65f
10:00 15 17 mph 1003.9mb 68f 65f
9:54 16 18 mph 1003.9mb 68f 65f
9:48 15 17 mph 1004mb 68f 65f
9:42 15 18 mph 1004.1mb 68f 64f
9:36 15 17 mph 1004.2mb 68f 64f
9:30 16 20 mph 1004.4mb 68f 64f
9:24 15 18 mph 1004.3mb 68f 64f
9:18 15 17 mph 1004.4mb 68f 64f
9:12 15 17 mph 1004.4mb 69f 64f
9:06 14 17 mph 1004.5mb 69f 64f
9:00 15 18 mph 1004.5mb 69f 64f
8:54 15 17 mph 1004.6mb 69f 64f
8:48 15 17 mph 1004.7mb 69f 64f
8:42 14 18 mph 1004.8mb 69f 65f
8:36 14 16 mph 1004.8mb 69f 65f
8:30 15 17 mph 1004.8mb 69f 65f
8:24 15 17 mph 1004.8mb 69f 65f
8:18 14 16 mph 1004.9mb 68f 65f
8:12 14 15 mph 1005mb 68f 65f
8:06 13 15 mph 1005mb 68f 65f
8:00 13 15 mph 1005mb 68f 65f
7:54 14 15 mph 1005mb 68f 65f
7:48 14 16 mph 1005mb 68f 65f
7:42 11 14 mph 1005mb 69f 65f
7:36 9 11 mph 1005.2mb 68f 65f
7:30 9 13 mph 1005.3mb 68f 64f
7:24 10 16 mph 1005.3mb 68f 65f
7:18 14 20 mph 1005.2mb 68f 65f
7:12 18 24 mph 1005mb 68f 65f
7:06 18 25 mph 1005mb 68f 65f
7:00 23 30 mph 1005mb 68f 65f
6:54 24 31 mph 1005mb 68f 65f
6:48 25 32 mph 1005mb 69f 65f
6:42 24 31 mph 1005mb 69f 65f
6:36 25 32 mph 1005.2mb 69f 65f
6:30 28 34 mph 1005.4mb 69f 65f
6:24 29 36 mph 1005.5mb 69f 65f
6:18 29 37 mph 1005.8mb 69f 65f
6:12 25 30 mph 1006mb 69f 65f
6:06 26 34 mph 1006.1mb 69f 65f
6:00 26 33 mph - - 65f
5:54 28 34 mph - - 65f
5:48  -  mph 1005.8mb 69f -
5:42  -  mph 1006.1mb 69f -
5:36  -  mph 1006.2mb 69f -
5:30  -  mph 1006.3mb 69f -
5:24  -  mph 1006.6mb 69f -
5:18  -  mph - - 65f
5:12  -  mph - - 65f
5:06  -  mph - - 65f
5:00 21 33 mph 1007.5mb 69f 64f
4:54 26 34 mph 1007.5mb 69f 64f
4:48 22 29 mph 1007.8mb 69f 65f
4:42 24 30 mph 1008mb 69f 65f
4:36 23 28 mph 1008.1mb 69f 65f
4:30 23 28 mph 1008.2mb 69f 64f
4:24 21 25 mph 1008.4mb 69f 64f
4:18 22 29 mph 1008.6mb 69f 64f
4:12 21 29 mph 1008.8mb 69f 64f
4:06 22 30 mph 1008.8mb 69f 64f
4:00 24 29 mph 1009mb 69f 64f
3:54 22 30 mph 1009.2mb 69f 64f
3:48 23 30 mph 1009.3mb 69f 64f
3:42 24 30 mph 1009.4mb 69f 65f
3:36 25 31 mph 1009.6mb 69f 64f
3:30 24 30 mph 1009.7mb 69f 65f
3:24 23 26 mph 1009.9mb 69f 65f
3:18 20 28 mph 1010.2mb 69f 64f
3:12 20 25 mph 1010.4mb 69f 64f
3:06 18 22 mph 1010.5mb 69f 64f
3:00 15 24 mph 1010.6mb - 64f
2:54 15 20 mph 1010.9mb - 64f
2:48 16 18 mph 1011.1mb 69f 64f
2:42 13 20 mph 1011.4mb 69f 63f
2:36 15 21 mph 1011.7mb 69f 63f
2:30 15 21 mph 1011.9mb 69f 63f
2:24 16 20 mph 1012.1mb 69f 63f
2:18 14 20 mph - - 63f
2:12 15 20 mph - - 63f
2:06 16 23 mph - - 63f
2:00 18 23 mph 1012.7mb 69f 63f
1:54 17 22 mph 1012.8mb 69f 63f
1:48 16 22 mph 1013.1mb 69f 63f
1:42 16 21 mph 1013.4mb 69f 62f
1:36 17 23 mph 1013.7mb 69f 63f
1:30 20 23 mph 1013.8mb 69f 63f
1:24 22 26 mph 1013.9mb 69f 63f
1:18 22 26 mph 1014mb 69f 63f
1:12 18 24 mph 1014mb 69f 62f
1:06 20 25 mph 1014.2mb 69f 63f
1:00 23 25 mph 1014.3mb 69f 62f
12:54 20 24 mph 1014.5mb 69f 62f
12:48 18 23 mph 1014.7mb 69f 62f
12:42 17 21 mph 1014.9mb 70f 62f
12:36 17 20 mph 1015.1mb 70f 62f
12:30 17 22 mph 1015.5mb 70f 62f
12:24 17 22 mph 1015.6mb 70f 62f
12:18 17 22 mph 1015.8mb 70f 62f
12:12 15 18 mph 1016.3mb 70f 63f
12:06 15 20 mph 1016.4mb 70f 63f
12:00 18 23 mph 1016.3mb 70f 63f
sam. 06/27 11:54 18 22 mph 1016.3mb 70f 63f
11:48 21 25 mph 1016mb 70f 63f
11:42 21 25 mph 1015.9mb 70f 63f
11:36 21 24 mph 1016.1mb 70f 63f
11:30 20 24 mph 1016.2mb 70f 63f
11:24 22 26 mph 1016.3mb 70f 63f
11:18 23 25 mph 1016.3mb 70f 63f
11:12 20 23 mph 1016.6mb 70f 62f
11:06 20 22 mph 1017mb 70f 63f
11:00 18 21 mph 1017.3mb 70f 62f
10:54 17 20 mph 1017.5mb 70f 62f
10:48 16 18 mph 1017.9mb 70f 62f
10:42 13 16 mph 1018.3mb 70f 62f
10:36 14 18 mph 1018.3mb 70f 62f
10:30 14 16 mph 1018mb 70f 62f
10:24 11 14 mph 1018.3mb 70f 62f
10:18 13 15 mph 1018.5mb 70f 62f
10:12 13 15 mph 1018.7mb 70f 62f
10:06 14
mph
1018.8mb 70f 62f
10:00 13 17 mph 1018.9mb 70f 62f
9:54 16 18 mph 1018.3mb 70f 62f
9:48 14 16 mph 1018.8mb 70f 63f
9:42 14 20 mph 1018.9mb 70f 63f
9:36 16 18 mph 1018.9mb 70f 63f
9:30 15 17 mph 1018.8mb 70f 64f
9:24 14 17 mph 1018.9mb 70f 64f
9:18 10 14 mph 1019mb 70f 64f
9:12 14 20 mph 1019mb 70f 64f
9:06 18 24 mph 1018.7mb 70f 64f
9:00 18 22 mph 1018.7mb 70f 64f
8:54 18 23 mph 1018.6mb 70f 65f
8:48 17 22 mph 1018.7mb 70f 65f
8:42 13 18 mph 1018.9mb 70f 65f
8:36 15 17 mph 1019mb 70f 65f
8:30 18 22 mph 1019.1mb 70f 65f
8:24 17 18 mph 1019.1mb 70f 65f
8:18 16 21 mph 1019.1mb 70f 65f
8:12 17 20 mph 1018.9mb 70f 65f
8:06 18 21 mph 1018.9mb 70f 65f
8:00 18 22 mph 1019mb 70f 65f
7:54 16 22 mph 1018.9mb 70f 65f
7:48 17 23 mph 1018.8mb 70f 65f
7:42 16 22 mph 1018.9mb 70f 65f
7:36 16 20 mph 1019mb 70f 65f
7:30 15 20 mph 1019.2mb 70f 65f
7:24 16 18 mph 1019.2mb 70f 65f
7:18 14 18 mph 1019.1mb 70f 65f
7:12 16 21 mph 1019.1mb 69f 65f
7:06 14 16 mph 1019.1mb 70f 65f
7:00 14 16 mph 1019.2mb 70f 64f
6:54 14 16 mph 1019.2mb 70f 65f
6:48 13 15 mph 1019.2mb 70f 65f
6:42 13 16 mph 1019.3mb 70f 64f
6:36 15 17 mph 1019.3mb 70f 65f
6:30 15 18 mph 1019.4mb 70f 65f
6:24 14 16 mph 1019.5mb 70f 65f
6:18 14 16 mph 1019.6mb 70f 65f
6:12 13 16 mph 1019.7mb 70f 65f
6:06 14 16 mph 1019.8mb 70f 65f
6:00 14 17 mph 1019.9mb 70f 65f
5:54 15 17 mph 1020mb 71f 65f
5:48 10 14 mph 1020.1mb 71f 65f
5:42 10 15 mph 1020.2mb 71f 65f
5:36 14 16 mph 1020.2mb 71f 65f
5:30 15 18 mph 1020.2mb 71f 65f
5:24 10 14 mph 1020.3mb 71f 65f
5:18 13 17 mph 1020.4mb 71f 66f
5:12 11 16 mph 1020.3mb 71f 66f
5:06 14 16 mph 1020.2mb 71f 65f
5:00 11 14 mph 1020.3mb 71f 66f
4:54 10 15 mph 1020.2mb 71f 66f
4:48 11 16 mph 1020.2mb 71f 66f
4:42 10 13 mph 1020.3mb 71f 66f
4:36 11 14 mph 1020.3mb 71f 66f
4:30 11 14 mph 1020.3mb 71f 66f
4:24 11 14 mph 1020.3mb 71f 66f
4:18 11 14 mph 1020.4mb 71f 66f
4:12 11 13 mph 1020.5mb 71f 66f
4:06 11 13 mph 1020.6mb 71f 66f
4:00 11 14 mph 1020.6mb 71f 66f
3:54 11 14 mph 1020.7mb 71f 66f
3:48 11 15 mph 1020.8mb 71f 66f
3:42 11 14 mph 1020.9mb 71f 65f
3:36 11 15 mph 1021mb 71f 65f
3:30 10 15 mph 1021mb 71f 66f
3:24 10 16 mph 1021mb 71f 66f
3:18 10 13 mph 1021mb 71f 66f
3:12 10 14 mph 1020.9mb 71f 66f
3:06 11 14 mph 1020.8mb 71f 66f
3:00 10 14 mph 1020.7mb 71f 66f
2:54 11 14 mph 1020.6mb 71f 66f
2:48 8 11 mph 1020.5mb 71f 66f
2:42 10 13 mph 1020.4mb 71f 66f
2:36 9 14 mph 1020.4mb 71f 66f
2:30 10 14 mph 1020.3mb 71f 66f
2:24 10 13 mph 1020.4mb 71f 66f
2:18 9 14 mph 1020.4mb 71f 67f
2:12 10 13 mph 1020.4mb 71f 67f
2:06 10 14 mph 1020.3mb 71f 66f
2:00 10 14 mph 1020.4mb 71f 67f
1:54 10 11 mph 1020.3mb 71f 67f
1:48 9 13 mph 1020.3mb 71f 67f
1:42 9 13 mph 1020.3mb 71f 67f
1:36 10 13 mph 1020.3mb 71f 67f
1:30 10 13 mph 1020.3mb 71f 67f
1:24 9 11 mph 1020.2mb 71f 67f
1:18 9 10 mph 1020.3mb 71f 67f
1:12 8 10 mph 1020.4mb 71f 67f
1:06 9 10 mph 1020.4mb 71f 68f
1:00 9 11 mph 1020.4mb 71f 68f
12:54 9 10 mph 1020.4mb 71f 68f
12:48 7 10 mph 1020.3mb 71f 68f
12:42 9 11 mph 1020.3mb 71f 68f
12:36 8 10 mph 1020.2mb 71f 68f
12:30 9 13 mph 1020.3mb 71f 68f
12:24 9 11 mph 1020.3mb 71f 68f
12:18 8 10 mph 1020.4mb 71f 68f
12:12 9 11 mph 1020.4mb 71f 68f
12:06 10 11 mph 1020.5mb 71f 68f
12:00 9 11 mph 1020.6mb 71f 68f
11:54 9 13 mph 1020.7mb 71f 69f
11:48 10 13 mph 1020.7mb 71f 69f
11:42 11 14 mph 1020.8mb 71f 69f
11:36 10 14 mph 1020.8mb 71f 69f
11:30 10 13 mph 1020.8mb 71f 69f
11:24 11 14 mph 1020.9mb 71f 69f
11:18 9 11 mph 1020.9mb 71f 69f
11:12 9 11 mph 1020.9mb 71f 69f
11:06 8 9 mph 1021mb 71f 69f
11:00 3 5 mph 1021mb 71f 69f
10:54  -  2 mph 1021mb 71f 70f
10:48 2
mph
1021mb 71f 69f
10:42  -  1 mph 1021mb 70f 70f
10:36  -  2 mph 1021mb 70f 70f
10:30 2
mph
1020.9mb 70f 68f
10:24 2 3 mph 1020.9mb 70f 67f
10:18 2 3 mph 1020.9mb 70f 67f
10:12 3 5 mph 1020.9mb 70f 67f
10:06 2 5 mph 1020.9mb 70f 67f
10:00 2 5 mph 1020.9mb 70f 67f
9:54 3 5 mph 1021mb 70f 66f
9:48 5 6 mph 1021mb 70f 66f
9:42 2 5 mph 1021mb 70f 67f
9:36 2 5 mph 1021mb 70f 66f
9:30 5
mph
1021mb 70f 66f
9:24 5 6 mph 1021mb 70f 66f
9:18 3 5 mph 1021.1mb 70f 66f
9:12 1 3 mph 1021.2mb 70f 67f
9:06  -  1 mph 1021.3mb 70f 67f
9:00  -  2 mph 1021.3mb 70f 67f
8:54 2 3 mph 1021.4mb 70f 66f
8:48 1 3 mph 1021.5mb 70f 66f
8:42 3
mph
1021.6mb 70f 66f
8:36 1 3 mph 1021.6mb 70f 66f
8:30 3 5 mph 1021.6mb 70f 65f
8:24 2 3 mph 1021.6mb 70f 65f
8:18 3 5 mph 1021.6mb 70f 65f
8:12 3 5 mph 1021.5mb 69f 65f
8:06 3 5 mph 1021.5mb 69f 65f
8:00 3 6 mph 1021.5mb 69f 65f
7:54 3 6 mph 1021.4mb 69f 65f
7:48 3
mph
1021.4mb 69f 65f
7:42 3 5 mph 1021.1mb 69f 65f
7:36 2 3 mph 1021.1mb 69f 65f
7:30 3 6 mph 1021.1mb 69f 65f
7:24 5 7 mph 1020.8mb 69f 64f
7:18 6 7 mph 1020.6mb 69f 64f
7:12 6 7 mph 1020.7mb 69f 64f
7:06 6 7 mph 1020.8mb 69f 64f
7:00 6
mph
1020.6mb 70f 63f
6:54 6
mph
1020.5mb 70f 63f
6:48 5 6 mph 1020.4mb 70f 62f
6:42 3 6 mph 1020.4mb 70f 62f
6:36 5
mph
1020.3mb 70f 62f
6:30 3 5 mph 1020.2mb 70f 62f
6:24 3 5 mph 1020.2mb 70f 62f
6:18 5
mph
1020.1mb 70f 62f
6:12 1 3 mph 1020mb 70f 62f
6:06 3 5 mph 1020mb 70f 61f
6:00 2 5 mph 1019.9mb 70f 62f
5:54 5 6 mph 1019.9mb 70f 60f
5:48 5 6 mph 1019.7mb 70f 60f
5:42 5
mph
1019.5mb 70f 59f
5:36 5
mph
1019.5mb 70f 60f
5:30 3
mph
1019.6mb 70f 60f
5:24 2 3 mph 1019.6mb 70f 60f
5:18 3
mph
1019.5mb 70f 59f
5:12 3
mph
1019.5mb 70f 59f
5:06 2 3 mph 1019.5mb 70f 60f
5:00 3 5 mph 1019.5mb 70f 59f
4:54 2 5 mph 1019.4mb 70f 59f
4:48 3
mph
1019.2mb 70f 60f
4:42 2
mph
1019.2mb 70f 60f
4:36 2
mph
1019.2mb 70f 60f
4:30 2 3 mph 1019.1mb 70f 60f
4:24 2 3 mph 1019.1mb 70f 60f
4:18 3 5 mph 1019.1mb 70f 60f
4:12 5
mph
1019mb 70f 60f
4:06 3 5 mph 1019mb 70f 60f
4:00 3 5 mph 1019mb 70f 60f
3:54 3 5 mph 1019mb 70f 60f
3:48 5
mph
1018.9mb 70f 60f
3:42 3 5 mph 1018.8mb 70f 60f
3:36 3 5 mph 1018.8mb 70f 60f
3:30 3 5 mph 1018.8mb 70f 60f
3:24 3 5 mph 1018.8mb 70f 61f
3:18 3
mph
1018.7mb 70f 61f
3:12 3
mph
1018.7mb 70f 60f
3:06 3 5 mph 1018.6mb 70f 60f
3:00 5 6 mph 1018.6mb 70f 60f
2:54 5 6 mph 1018.6mb 70f 60f
2:48 5 6 mph 1018.6mb 70f 60f
2:42 5 6 mph 1018.6mb 70f 60f
2:36 5 6 mph 1018.5mb 70f 60f
2:30 3 6 mph 1018.5mb 70f 60f
2:24 5 6 mph 1018.6mb 70f 60f
2:18 5 6 mph 1018.6mb 70f 61f
2:12 5 6 mph 1018.5mb 70f 61f
2:06 6
mph
1018.5mb 70f 61f
2:00 6
mph
1018.4mb 70f 61f
1:54 5
mph
1018.3mb 70f 61f
1:48 3 5 mph 1018.3mb 70f 62f
1:42 3
mph
1018.3mb 70f 62f
1:36 2 5 mph 1018.2mb 70f 62f
1:30 3
mph
1018.4mb 70f 62f
1:24 2 3 mph 1018.2mb 70f 63f
1:18 2 3 mph 1018.3mb 70f 63f
1:12 2 3 mph 1018.3mb 70f 63f
1:06 3
mph
1018.2mb 70f 63f
1:00 3 5 mph 1018.1mb 70f 63f
12:54 3 5 mph 1018.1mb 70f 63f
12:48 3 5 mph 1018.1mb 70f 62f
12:42 3 5 mph 1018.1mb 70f 62f
12:36 5
mph
1018.1mb 70f 63f
12:30 3 5 mph 1018.1mb 70f 63f
12:24 3
mph
1018.2mb 70f 64f
12:18 2
mph
1018.3mb 70f 64f
12:12 2
mph
1018.3mb 70f 65f
12:06 2
mph
1018.4mb 70f 65f
12:00 2 3 mph 1018.5mb 70f 65f
ven. 06/26 11:54 2 6 mph 1018.5mb 70f 66f
11:48 5 6 mph 1018.5mb 70f 66f
11:42 6 7 mph 1018.5mb 70f 66f
11:36 6 7 mph 1018.4mb 70f 66f
11:30 6 7 mph 1018.3mb 70f 66f
11:24 6 7 mph 1018.2mb 70f 66f
11:18 6 7 mph 1018.1mb 70f 66f
11:12 6 7 mph 1018mb 70f 66f
11:06 6 7 mph 1018.2mb 70f 66f
11:00 6 7 mph 1018.1mb 70f 66f
10:54 6 7 mph 1018.2mb 70f 66f
10:48 6 7 mph 1018.3mb 70f 66f
10:42 5 6 mph 1018.3mb 70f 66f
10:36 5 7 mph 1018.1mb 70f 66f
10:30 7 8 mph 1018mb 70f 66f
10:24 7 8 mph 1018mb 70f 66f
10:18 8 9 mph 1017.9mb 70f 67f
10:12 8 10 mph 1017.9mb 70f 67f
10:06 9 10 mph 1017.8mb 70f 67f
10:00 7 9 mph 1017.7mb 70f 67f
9:54 8 10 mph 1017.6mb 70f 67f
9:48 10
mph
1017.5mb 70f 67f
9:42 9 10 mph 1017.5mb 70f 67f
9:36 8 11 mph 1017.4mb 70f 68f
9:30 10 11 mph 1017.3mb 70f 68f
9:24 10 13 mph 1017.2mb 70f 69f
9:18 11 13 mph 1017.1mb 70f 69f
9:12 13 14 mph 1017.1mb 70f 69f
9:06 11 14 mph 1017mb 70f 69f
9:00 13 14 mph 1016.8mb 70f 69f
8:54 14 15 mph 1016.8mb 70f 70f
8:48 13 16 mph 1016.7mb 70f 70f
8:42 15 16 mph 1016.7mb 70f 70f
8:36 13 15 mph 1016.6mb 70f 70f
8:30 14 16 mph 1016.7mb 70f 71f
8:24 13 15 mph 1016.7mb 70f 71f
8:18 13 15 mph 1016.6mb 70f 71f
8:12 15 16 mph 1016.5mb 70f 71f
8:06 13 14 mph 1016.5mb 70f 71f
8:00 13 15 mph 1016.4mb 70f 71f
7:54 13 14 mph 1016.3mb 70f 71f
7:48 11 13 mph 1016.3mb 70f 71f
6:54 13 15 mph 1015.6mb 70f 73f
6:48 13 15 mph 1015.6mb 70f 73f
5:54 11 13 mph 1015.1mb 70f 73f
5:48 9 11 mph 1015mb 70f 73f
4:54 13 14 mph 1014.8mb 71f 73f
4:48 13 15 mph 1014.7mb 71f 73f
4:30 13 16 mph 1014.7mb 70f 73f
4:24 13 14 mph 1014.6mb 70f 73f
4:18 11 14 mph 1014.7mb 70f 73f
4:12 11 14 mph 1014.6mb 70f 73f
4:06 13 15 mph 1014.6mb 70f 73f
4:00 13 15 mph 1014.6mb 70f 73f
3:54 13 14 mph 1014.6mb 70f 73f
3:48 13 14 mph 1014.6mb 70f 73f
3:42 13 14 mph 1014.7mb 70f 73f
3:36 13 14 mph 1014.7mb 70f 73f
3:30 13 15 mph 1014.7mb 70f 73f
3:24 13 14 mph 1014.7mb 70f 73f
3:18 13 16 mph 1014.7mb 70f 73f
3:12 13 14 mph 1014.8mb 70f 72f
3:06 10 13 mph 1014.9mb 70f 72f
3:00 8 9 mph 1014.9mb 70f 72f
2:54 7 10 mph 1014.9mb 70f 71f
2:48 8 9 mph 1014.9mb 70f 71f
2:42 7 10 mph 1014.9mb 70f 71f
2:36 8 10 mph 1014.9mb 70f 71f
2:30 9 11 mph 1014.9mb 70f 71f
2:24 9 11 mph 1014.8mb 70f 71f
2:18 9 11 mph 1014.8mb 70f 71f
2:12 10 14 mph 1014.9mb 70f 71f
2:06 10 11 mph 1014.8mb 70f 70f
2:00 9 11 mph 1014.9mb 70f 70f
1:54 11 13 mph 1014.8mb 70f 70f
1:48 11 14 mph 1014.8mb 70f 70f
1:42 13 15 mph 1014.9mb 70f 70f
1:36 13 15 mph 1014.9mb 70f 69f
1:30 11 14 mph 1014.9mb 70f 69f
1:24 14 15 mph 1014.9mb 70f 69f
1:18 11 16 mph 1015mb 70f 70f
1:12 13 15 mph 1015.1mb 70f 69f
1:06 14 15 mph 1015.1mb 70f 69f
1:00 10 11 mph 1015mb 70f 68f
12:54 10 14 mph 1015.2mb 70f 68f
12:48 11 14 mph 1015.2mb 70f 68f
12:42 14 16 mph 1015.3mb 70f 67f
12:36 14 17 mph 1015.3mb 70f 68f
12:30 15 17 mph 1015.2mb 70f 68f
12:24 13 16 mph 1015.3mb 70f 67f
12:18 14 17 mph 1015.4mb 70f 67f
12:12 14 16 mph 1015.3mb 69f 67f
12:06 17 21 mph 1015.3mb 69f 67f
12:00 16 20 mph 1015.4mb 69f 67f
11:54 16 20 mph 1015.3mb 69f 67f
11:48 16 20 mph 1015.2mb 69f 68f
11:42 15 18 mph 1015.1mb 69f 67f
11:36 15 20 mph 1015.1mb 69f 68f
11:30 18 23 mph 1015mb 69f 67f
11:24 17 21 mph 1015.1mb 69f 67f
11:18 16 18 mph 1015mb 69f 67f
11:12 15 18 mph 1015.1mb 69f 67f
11:06 17 22 mph 1015mb 69f 67f
11:00 16 20 mph 1014.9mb 69f 67f
10:54 17 22 mph 1014.9mb 69f 67f
10:48 20 24 mph 1014.8mb 69f 67f
10:42 21 23 mph 1014.7mb 69f 67f
10:36 20 22 mph 1014.7mb 69f 67f
10:30 20 23 mph 1014.8mb 69f 67f
10:24 18 22 mph 1014.8mb 69f 67f
10:18 20 24 mph 1014.8mb 69f 67f
10:12 18 23 mph 1014.7mb 69f 68f
10:06 20 23 mph 1014.8mb 69f 68f
10:00 18 23 mph 1014.8mb 69f 67f
9:54 20 23 mph 1014.8mb 69f 67f
9:48 18 26 mph 1014.8mb 68f 67f
9:42 20 23 mph 1014.7mb 68f 67f
9:36 17 26 mph 1014.8mb 68f 67f
9:30 21 25 mph 1014.6mb 68f 67f
9:24 20 26 mph 1014.7mb 68f 67f
9:18 21 23 mph 1014.7mb 68f 67f
9:12 18 24 mph 1014.7mb 68f 67f
9:06 18 23 mph 1014.7mb 68f 67f
9:00 20 23 mph 1014.8mb 68f 67f
8:54 18 22 mph 1014.6mb 68f 67f